Location: Newark
(45.7667°N, 11.5167°E)
Time: 17:34:08
(UTC+00:00)

Envisat - Pass Details

Date: 25 January 2020
Orbit: 764 x 766 km, 98.1° (Epoch: 22 February)

Event Time Altitude Azimuth Distance (km) Brightness Sun altitude
Rises 17:27:26 0° 181° (S) 3,219 6.4 -13.7°
Reaches altitude 10° 17:29:48 10° 187° (S) 2,297 5.7 -14.1°
Maximum altitude 17:34:41 48° 261° (W) 999 4.1 -14.9°
Drops below altitude 10° 17:39:37 10° 336° (NNW) 2,313 5.6 -15.7°
Sets 17:42:01 0° 342° (NNW) 3,244 6.3 -16.2°
